Regional Weather Roundup
Issued by NWS Burlington, VT

Home | Current Version | Previous Version | Text Only | Print | Product List | Glossary On
Versions: 1 2 3 4 5 6 7 8 9 10 11 12 13 14 15 16 17 18 19 20 21 22 23 24 25 26 27 28 29 30 31 32 33 34 35 36 37 38 39 40 41 42 43 44 45 46 47 48 49 50
000
ASUS41 KBTV 291010
RWRBTV
VERMONT REGIONAL WEATHER ROUNDUP
NATIONAL WEATHER SERVICE BURLINGTON VT
600 AM EDT FRI JUL 29 2016

NOTE: "FAIR" INDICATES FEW OR NO CLOUDS BELOW 12,000 FEET WITH NO
SIGNIFICANT WEATHER AND/OR OBSTRUCTIONS TO VISIBILITY.

* THESE REPORTS ARE NOT UNDER NWS QUALITY CONTROL AND/OR DO NOT
  REPORT WEATHER SUCH AS PRECIPITATION AND FOG.

VTZ001>019-291100-
_____VERMONT_____


CITY           SKY/WX    TMP DP  RH WIND       PRES   REMARKS
BURLINGTON     CLOUDY    68  64  87 CALM      29.91R
MONTPELIER     FOG       64  64 100 CALM      29.96S VSB 1/2
MORRISVILLE    CLOUDY    64  62  93 CALM      29.94R
ST. JOHNSBURY*   N/A     65  62  90 MISG      29.90R
LYNDONVILLE*   FOG       63  62  97 CALM      29.94S VSB 1
MIDDLEBURY*    FAIR      63  63 100 CALM      29.90R
RUTLAND*       CLOUDY    65  65 100 CALM      29.91S FOG
SPRINGFIELD    FAIR      65  63  93 CALM      29.90S
HIGHGATE*      FAIR      63  62  99 CALM      29.91S FOG
NEWPORT*       CLOUDY    64  63  99 CALM      29.94R FOG
BENNINGTON     FAIR      65  64  97 CALM      29.89S FOG
SUTTON*          N/A     63 N/A N/A MISG        N/A

_____LAKE CHAMPLAIN_____


CITY           SKY/WX    TMP DP  RH WIND       PRES   REMARKS
BURTON ISLAND*   N/A     70  66  88 N1          N/A
COLCHESTER RF*   N/A     70  63  78 N16         N/A
DIAMOND ISL*     N/A     72  66  83 N12         N/A

$$

NYZ007-026>031-035-052-083-087-291100-
_____NORTHERN NEW YORK_____


CITY           SKY/WX    TMP DP  RH WIND       PRES   REMARKS
PLATTSBURGH    CLOUDY    66  60  81 NW6       29.91R
SARANAC LAKE   CLOUDY    61  58  90 CALM      29.94S
MASSENA        CLEAR     62  57  83 N5        29.93S
OGDENSBURG*    CLEAR     63  57  82 NE5       29.93S
POTSDAM*       MOCLDY    61  61 100 CALM      29.93S
WATERTOWN      CLEAR     66  61  84 N8        29.91R
FT DRUM        MOCLDY    65  64  97 N8        29.91S
ALBANY         CLOUDY    69  67  93 N3        29.86F
GLENS FALLS    CLOUDY    66  64  93 N3        29.88S FOG

$$
NHZ002-005-011-291100-
_____NEW HAMPSHIRE_____


CITY           SKY/WX    TMP DP  RH WIND       PRES   REMARKS
LEBANON        MOCLDY    67  64  90 CALM      29.89S
KEENE          MOCLDY    68  67  96 S3        29.89S FOG
MT WASHINGTON  CLOUDY    52  50  93 W12         N/A
PLYMOUTH       MOCLDY    64  63  96 CALM      29.90R FOG
WHITEFIELD     CLOUDY    60  58  92 CALM      29.93R FOG

$$

_____REGIONAL QUEBEC LOCATIONS_____


CITY           SKY/WX    TMP DP  RH WIND       PRES   REMARKS
MONTREAL       PTCLDY    63  54  72 NW8       29.92S
QUEBEC CITY    PTCLDY    61  57  88 N3        29.92R
SHERBROOKE     CLOUDY    61  61 100 CALM      29.92S

_____REGIONAL ONTARIO LOCATIONS_____


CITY           SKY/WX    TMP DP  RH WIND       PRES   REMARKS
OTTAWA         PTCLDY    63  55  77 N10       29.95F

______KEY______
VSB  - VISIBILITY IN MILES
WCI  - WIND CHILL INDEX
HX   - HEAT INDEX
$$
NNNN



USA.gov is the U.S. government's official web portal to all federal, state and local government web resources and services.